Weather History for Ndjamena, Chad

Change the Weather History Date:

Wednesday, February 6, 2013

  Actual Average Record
Temperature  
Mean Temperature 74 °F -  
Max Temperature 86 °F 96 °F 105 °F (2012)
Min Temperature 62 °F 64 °F 55 °F (2001)
Cooling Degree Days 9    
Growing Degree Days 24 (Base 50)    
Moisture  
Dew Point 35 °F    
Average Humidity 26    
Maximum Humidity 48    
Minimum Humidity 6    
Precipitation  
Precipitation 0.00 in 0.00 in - ()
Sea Level Pressure  
Sea Level Pressure 29.98 in    
Wind  
Wind Speed 7 mph ()    
Max Wind Speed 14 mph    
Max Gust Speed -    
Visibility 1.9 miles    
Events      
Averages and records for this station are not official NWS values.
T = Trace of Precipitation, MM = Missing Value Source: Averaged Metar Reports

Daily Weather History Graph

Daily Weather History Graph

Search for Another Location

Airport:

Trip Planner

Search our weather history database for the weather conditions in past years. The results will help you decide how hot, cold, wet, or windy it might be!

Date:

Astronomy

Feb. 06, 2013 Rise Set
Actual Time 6:24 AM WAT 6:03 PM WAT
Civil Twilight 6:02 AM WAT 6:25 PM WAT
Nautical Twilight 5:36 AM WAT 6:51 PM WAT
Astronomical Twilight 5:11 AM WAT 7:16 PM WAT
Moon 2:31 AM WAT (2/6) 2:22 PM WAT (2/6)
Length of Visible Light 12h 23m
Length of Day
11h 39m
Waning Crescent, 19% of the Moon is Illuminated
Feb 6
Waning Crescent
Feb 10
New
Feb 17
First Quarter
Feb 25
Full
Mar 4
Last Quarter

Hourly Weather History & Observations

Time (WAT) Temp. Dew Point Humidity Pressure Visibility Wind Dir Wind Speed Gust Speed Precip Events Conditions
12:00 AM 75.2 °F 42.8 °F 31% 30.01 in 3.7 mi North 9.2 mph - N/A   Unknown
1:00 AM 72 °F 30 °F 12% 29.91 in 4 mi North 6.9 mph - -   Widespread Dust
1:00 AM 73.4 °F 42.8 °F 33% 29.98 in 3.7 mi North 6.9 mph - N/A   Unknown
1:30 AM 71.6 °F 42.8 °F 35% 29.98 in 2.5 mi North 6.9 mph - N/A   Haze
2:00 AM 71.6 °F 44.6 °F 38% 29.98 in 2.5 mi North 5.8 mph - N/A   Haze
2:30 AM 69.8 °F 42.8 °F 38% 29.98 in 2.5 mi North 5.8 mph - N/A   Haze
3:00 AM 69.8 °F 42.8 °F 38% 29.98 in 2.5 mi North 6.9 mph - N/A   Haze
3:30 AM 68.0 °F 42.8 °F 40% 29.98 in 2.5 mi North 6.9 mph - N/A   Haze
4:00 AM 68.0 °F 41.0 °F 37% 29.98 in 2.5 mi North 6.9 mph - N/A   Haze
4:30 AM 66.2 °F 41.0 °F 40% 29.98 in 2.5 mi North 5.8 mph - N/A   Haze
5:00 AM 66.2 °F 42.8 °F 43% 29.98 in 2.5 mi North 6.9 mph - N/A   Haze
5:30 AM 64.4 °F 41.0 °F 42% 30.01 in 2.5 mi North 6.9 mph - N/A   Haze
6:00 AM 64.4 °F 41.0 °F 42% 30.01 in 2.5 mi North 5.8 mph - N/A   Haze
6:30 AM 62.6 °F 42.8 °F 48% 30.01 in 1.6 mi North 5.8 mph - N/A   Haze
7:00 AM 63 °F 31 °F 19% 29.95 in 1 mi North 6.9 mph - -   Widespread Dust
7:00 AM 62.6 °F 42.8 °F 48% 30.01 in 1.6 mi North 5.8 mph - N/A   Haze
7:30 AM 64.4 °F 42.8 °F 45% 30.04 in 1.6 mi North 6.9 mph - N/A   Haze
8:00 AM 66.2 °F 41.0 °F 40% 30.04 in 1.6 mi North 9.2 mph - N/A   Haze
8:30 AM 68.0 °F 39.2 °F 35% 30.04 in 1.6 mi North 11.5 mph - N/A   Haze
9:00 AM 69.8 °F 39.2 °F 33% 30.04 in 1.6 mi North 12.7 mph - N/A   Haze
9:30 AM 73.4 °F 39.2 °F 29% 30.04 in 1.6 mi North 13.8 mph - N/A   Haze
10:00 AM 73.4 °F 39.2 °F 29% 30.04 in 1.6 mi NNE 12.7 mph - N/A   Haze
10:30 AM 77.0 °F 39.2 °F 26% 30.04 in 1.6 mi North 11.5 mph - N/A   Haze
11:00 AM 78.8 °F 39.2 °F 24% 30.04 in 1.6 mi North 9.2 mph - N/A   Haze
11:30 AM 78.8 °F 41.0 °F 26% 30.01 in 1.6 mi North 11.5 mph - N/A   Haze
12:00 PM 80.6 °F 41.0 °F 24% 29.98 in 1.6 mi North 10.4 mph - N/A   Haze
12:30 PM 82.4 °F 41.0 °F 23% 29.98 in 1.6 mi NNW 11.5 mph - N/A   Haze
1:00 PM 82 °F 26 °F 6% 29.89 in 1 mi North 11.5 mph - -   Widespread Dust
1:00 PM 82.4 °F 24.8 °F 12% 29.98 in 1.6 mi North 9.2 mph - N/A   Haze
1:30 PM 84.2 °F 26.6 °F 12% 29.95 in 1.6 mi North 10.4 mph - N/A   Haze
2:00 PM 84.2 °F 26.6 °F 12% 29.95 in 1.6 mi North 8.1 mph - N/A   Haze
3:00 PM 86.0 °F 26.6 °F 12% 29.92 in 1.6 mi NNW 6.9 mph - N/A   Haze
3:30 PM 86.0 °F 26.6 °F 12% 29.92 in 1.6 mi NNW 4.6 mph - N/A   Haze
4:00 PM 86.0 °F 26.6 °F 12% 29.92 in 1.6 mi NNW 5.8 mph - N/A   Haze
4:30 PM 86.0 °F 28.4 °F 12% 29.89 in 1.6 mi North 5.8 mph - N/A   Haze
5:00 PM 84.2 °F 28.4 °F 13% 29.92 in 1.6 mi North 5.8 mph - N/A   Haze
5:30 PM 82.4 °F 26.6 °F 13% 29.92 in 1.6 mi North 6.9 mph - N/A   Haze
6:30 PM 80.6 °F 24.8 °F 13% 29.95 in 1.6 mi NNW 6.9 mph - N/A   Haze
7:00 PM 79 °F 35 °F 11% 29.88 in 2 mi NW 9.2 mph - -   Widespread Dust
7:00 PM 78.8 °F 24.8 °F 14% 29.95 in 1.6 mi NNW 8.1 mph - N/A   Haze
7:30 PM - - N/A% 29.95 in 1.6 mi NNW 6.9 mph - N/A   Haze
8:00 PM 75.2 °F 32.0 °F 21% 29.98 in 1.6 mi NNW 6.9 mph - N/A   Haze
8:30 PM 75.2 °F 30.2 °F 19% 29.98 in 1.6 mi NNW 6.9 mph - N/A   Haze
9:00 PM 73.4 °F 30.2 °F 20% 29.98 in 1.6 mi NW 6.9 mph - N/A   Haze
9:30 PM 73.4 °F 30.2 °F 20% 29.98 in 1.6 mi NW 6.9 mph - N/A   Haze
10:00 PM 73.4 °F 30.2 °F 20% 29.98 in 1.6 mi NW 5.8 mph - N/A   Haze
10:30 PM 71.6 °F 28.4 °F 20% 29.98 in 1.6 mi NW 5.8 mph - N/A   Haze
11:00 PM 71.6 °F 28.4 °F 20% 29.98 in 1.6 mi NW 6.9 mph - N/A   Haze
11:30 PM - - N/A% 29.98 in 1.6 mi NW 6.9 mph - N/A   Haze